Regional Weather Roundup
Issued by NWS

Home | Current Version | Previous Version | Graphics & Text | Print | Product List | Glossary On
Versions: 1 2 3 4 5 6 7 8 9 10 11 12 13 14 15 16 17 18 19 20 21 22 23 24 25 26 27 28 29 30 31 32 33 34 35 36 37 38 39 40 41 42 43 44 45 46 47 48 49 50
000
ASUS45 KBOU 181107
RWRCO

WEATHER ROUNDUP FOR COLORADO
NATIONAL WEATHER SERVICE DENVER/BOULDER CO
500 AM MDT SAT APR 18 2015

NOTE: "FAIR" INDICATES FEW OR NO CLOUDS BELOW 12000 FEET WITH NO
SIGNIFICANT WEATHER AND/OR OBSTRUCTIONS TO VISIBILITY.

COZ001>005-013-030-031-181200-
...NORTHWEST COLORADO...

CITY           SKY/WX    TMP DP  RH WIND       PRES   REMARKS
CRAIG          CLOUDY    33  30  88 SW6       30.02S WCI  28
HAYDEN         CLOUDY    32  28  86 W9        30.01R WCI  24
MEEKER         CLOUDY    36  31  82 MISG      30.00F
MOUNT WERNER   NOT AVBL
STEAMBOAT SPGS CLOUDY    32  29  90 CALM      29.99F
WALDEN         CLOUDY    28  27  93 N3        29.97F
$$

COZ006>008-011-181200-
...WEST CENTRAL VALLEYS...

CITY           SKY/WX    TMP DP  RH WIND       PRES   REMARKS
GRAND JUNCTION CLOUDY    32  32 100 N7        30.05R FOG     WCI  26
MONTROSE       CLOUDY    31  31 100 CALM      30.07R
EAGLE          CLOUDY    30  28  93 CALM      30.04F
RIFLE          CLOUDY    35  31  85 NE5       30.04S WCI  31
DELTA          CLOUDY    37  36  96 CALM      30.06S
NUCLA          CLOUDY    32  32 100 CALM      30.07S FOG
$$

COZ017>023-064>068-181200-
...SOUTHWEST COLORADO...

CITY           SKY/WX    TMP DP  RH WIND       PRES   REMARKS
DURANGO        MOCLDY    28  28 100 N3        30.01R
CORTEZ         CLOUDY    33  33 100 S3        30.04R
PAGOSA SPRINGS PTCLDY    22  16  77 CALM      29.99F
TELLURIDE      CLOUDY    22  22  98 CALM      30.03R
WOLF CREEK PAS PTCLDY    10   9  92 NE8       29.99F WCI  -1
$$

COZ009-010-012-014-032>034-037-058>063-181200-
...CENTRAL COLORADO...

CITY           SKY/WX    TMP DP  RH WIND       PRES   REMARKS
ASPEN          CLOUDY    21  18  88 S3        30.01S
BUENA VISTA    CLOUDY    16  11  82 CALM      29.99S
COPPER MTN     CLOUDY    19  10  68 W16       29.97F WCI   5
BERTHOUD PASS  SNOW      12   5  73 NE5       29.98F VSB 1/2 WCI   4
COTTONWOOD PAS CLOUDY    25  14  63 W3        29.96F
GUNNISON       MOCLDY    21  16  79 CALM      30.05S
KREMMLING      CLOUDY    30  21  69 W3        29.99F
LEADVILLE      CLOUDY    14  12  92 N6        29.96F WCI   5
MONARCH PASS   CLOUDY    12  10  92 MISG      30.06F
SALIDA         CLOUDY    20  17  86 W3        30.07S
SUNLIGHT       CLOUDY    21  19  93 NW5       30.05S WCI  15
WILKERSON PASS CLOUDY    18  14  86 CALM      29.99S VSB 1
$$

COZ069>075-181200-
...SAN LUIS VALLEY/SANGRE DE CRISTO MOUNTAINS...

CITY           SKY/WX    TMP DP  RH WIND       PRES   REMARKS
ALAMOSA        PTCLDY    21  16  81 NW3       29.99F
LA VETA PASS   CLOUDY    19  14  79 SW3       29.97F
SAGUACHE       MOCLDY    21  16  79 NW15      30.00S WCI   8
$$

COZ035-036-038>040-181200-
...NORTHERN COLORADO FRONT RANGE...

CITY           SKY/WX    TMP DP  RH WIND       PRES   REMARKS
DENVER INTL AP CLOUDY    38  35  89 N7        29.96S
DMNS CITY PARK   N/A     39  36  89 W2        29.96F
AURORA         CLOUDY    37  37 100 N1        29.97F
FRONT RANGE AP CLOUDY    37  37 100 NW6       29.97F
ERIE MUNI ARPT CLOUDY    38  37  94 CALM      29.97S
BOULDER MUN AP CLOUDY    37  36  93 NE5       29.96F
CENTENNIAL     CLOUDY    36  35  96 NW3       29.96F
BROOMFIELD     CLOUDY    37  36  93 N3        29.97S
FORT COLLINS   CLOUDY    39  34  81 N3        29.98S
LONGMONT       CLOUDY    42  36  81 CALM      29.99S
$$

COZ041-046-047-076>085-087-088-181200-
...PIKES PEAK/PALMER DIVIDE AND SOUTHERN FOOTHILLS...

CITY           SKY/WX    TMP DP  RH WIND       PRES   REMARKS
COLO. SPRINGS  MOCLDY    35  32  88 N13       29.97S WCI  26
A. F. ACADEMY  CLOUDY    33  32  99 NW8       29.96S WCI  25
ELLICOTT       CLOUDY   N/A N/A N/A N5        29.94F THUNDER
FALCON         CLOUDY    32  31  97 N10       29.97S THUNDER WCI  24
FORT CARSON    LGT RAIN  37  33  84 N6        29.95F
LIMON          FOG       36  36 100 N10       29.94F VSB 1
MONUMENT HILL  CLOUDY    32  30  93 CALM      29.96F THUNDER FOG
TRINIDAD       MOCLDY    32  26  78 W5        29.96F WCI  27
$$

COZ042>045-048>051-090-091-181200-
...NORTHEAST COLORADO...

CITY           SKY/WX    TMP DP  RH WIND       PRES   REMARKS
GREELEY ARPT   MOCLDY    37  30  75 NW3       29.97S
AKRON          MOCLDY    37  37 100 NW3       29.93F
BURLINGTON     CLOUDY    43  40  89 N13       29.91F
WRAY           PTCLDY   N/A N/A N/A N12       29.91F
STERLING       CLEAR     36  36 100 W5        29.93F
HOLYOKE        CLOUDY    46  43  87 N10       29.92F
FORT MORGAN    MOCLDY    36  35  96 W3        29.95F
$$

COZ086-089-092>099-181200-
...SOUTHEAST COLORADO...

CITY           SKY/WX    TMP DP  RH WIND       PRES   REMARKS
PUEBLO         CLOUDY    40  37  89 N6        29.95F
LA JUNTA       PTCLDY    40  35  83 NW14      29.93F
LAMAR          MOCLDY    39  37  92 W9        29.90F
SPRINGFIELD      N/A     36  33  89 NW12      29.91F
$$



USA.gov is the U.S. government's official web portal to all federal, state and local government web resources and services.